Weather History for KDVN - December, 2012

Change the Weather History Date:

Friday, December 21, 2012

  Actual Average Record
Temperature  
Mean Temperature 15 °F 23 °F  
Max Temperature 19 °F 31 °F 59 °F (1967)
Min Temperature 10 °F 16 °F -17 °F (1963)
Degree Days  
Heating Degree Days 50 42  
Month to date heating degree days 585 806  
Since 1 July heating degree days 2006 2154  
Cooling Degree Days 0 0  
Month to date cooling degree days 0 0  
Year to date cooling degree days 1114 786  
Moisture  
Dew Point 9 °F    
Average Humidity 78    
Maximum Humidity 88    
Minimum Humidity 67    
Precipitation  
Precipitation T in 0.06 in 0.67 in (2006)
Month to date precipitation 2.61 1.37  
Year to date precipitation 30.31 35.67  
Snow  
Snow T in - - ()
Month to date snowfall 5.3  
Since 1 July snowfall 5.3  
Snow Depth 4.00 in    
Sea Level Pressure  
Sea Level Pressure 30.12 in    
Wind  
Wind Speed 17 mph (WNW)    
Max Wind Speed 29 mph    
Max Gust Speed 36 mph    
Visibility 8 miles    
Events Rain , Snow    
T = Trace of Precipitation, MM = Missing Value Source: NWS Daily Summary

Daily Weather History Graph

Daily Weather History Graph

Search for Another Location

Airport or City:

Trip Planner

Search our weather history database for the weather conditions in past years. The results will help you decide how hot, cold, wet, or windy it might be!

Date:

Astronomy

Dec. 21, 2012 Rise Set
Actual Time 7:26 AM CST 4:35 PM CST
Civil Twilight 6:54 AM CST 5:07 PM CST
Nautical Twilight 6:19 AM CST 5:42 PM CST
Astronomical Twilight 5:45 AM CST 6:15 PM CST
Moon 12:25 PM CST (12/21) 1:09 AM CST (12/21)
Length of Visible Light 10h 12m
Length of Day
9h 09m
Waxing Gibbous, 65% of the Moon is Illuminated
Dec 21
Waxing Gibbous
Dec 28
Full
Jan 4
Last Quarter
Jan 11
New
Jan 18
First Quarter

Hourly Weather History & Observations

Time (CST) Temp. Windchill Dew Point Humidity Pressure Visibility Wind Dir Wind Speed Gust Speed Precip Events Conditions
12:10 AM 17.6 °F -0.3 °F 14.0 °F 86% 29.82 in 5.0 mi WNW 24.2 mph 31.1 mph N/A   Mostly Cloudy
12:39 AM 17.6 °F -1.0 °F 12.2 °F 79% 29.84 in 3.0 mi WNW 26.5 mph 34.5 mph 0.00 in Snow Light Snow
12:52 AM 16.0 °F -2.1 °F 12.9 °F 88% 29.88 in 4.0 mi WNW 23.0 mph 34.5 mph 0.00 in Snow Light Snow
1:52 AM 15.1 °F -4.4 °F 10.9 °F 84% 29.92 in 2.5 mi WNW 26.5 mph 33.4 mph 0.00 in Snow Light Snow
2:13 AM 15.8 °F -3.1 °F 10.4 °F 79% 29.91 in 4.0 mi WNW 25.3 mph 33.4 mph 0.00 in Snow Light Snow
2:52 AM 14.0 °F -4.7 °F 10.0 °F 84% 29.96 in 6.0 mi WNW 23.0 mph - 0.00 in Snow Light Snow
3:52 AM 14.0 °F -5.1 °F 10.0 °F 84% 29.99 in 6.0 mi WNW 24.2 mph - 0.00 in Rain Light Freezing Rain
4:40 AM 12.2 °F -7.1 °F 8.6 °F 85% 29.98 in 8.0 mi WNW 23.0 mph 29.9 mph 0.00 in Snow Light Snow
4:52 AM 12.9 °F -5.3 °F 8.1 °F 81% 30.02 in 9.0 mi WNW 20.7 mph - 0.00 in Snow Light Snow
5:52 AM 12.9 °F -6.5 °F 8.1 °F 81% 30.05 in 10.0 mi WNW 24.2 mph 32.2 mph 0.00 in Rain Light Freezing Rain
6:33 AM 12.2 °F -7.1 °F 8.6 °F 85% 30.03 in 9.0 mi WNW 23.0 mph - 0.00 in Snow Light Snow
6:52 AM 12.0 °F -7.3 °F 7.0 °F 80% 30.08 in 9.0 mi WNW 23.0 mph - 0.00 in Snow Light Snow
7:52 AM 12.0 °F -4.0 °F 7.0 °F 80% 30.11 in 9.0 mi WNW 15.0 mph - 0.00 in Snow Light Snow
8:52 AM 12.9 °F -4.4 °F 6.1 °F 74% 30.14 in 9.0 mi WNW 18.4 mph - 0.00 in Snow Light Snow
9:35 AM 14.0 °F -3.0 °F 6.8 °F 73% 30.12 in 10.0 mi WNW 18.4 mph - 0.00 in Rain Light Freezing Rain
9:52 AM 15.1 °F -2.9 °F 7.0 °F 70% 30.18 in 10.0 mi WNW 21.9 mph - 0.00 in Rain Light Freezing Rain
10:25 AM 15.8 °F -1.1 °F 6.8 °F 68% 30.15 in 10.0 mi WNW 19.6 mph 27.6 mph 0.00 in   Clear
10:39 AM 15.8 °F -1.5 °F 8.6 °F 73% 30.15 in 10.0 mi NW 20.7 mph 26.5 mph 0.00 in Rain Light Freezing Rain
10:52 AM 15.1 °F -2.0 °F 8.1 °F 74% 30.20 in 10.0 mi NW 19.6 mph 26.5 mph 0.00 in Rain Light Freezing Rain
11:52 AM 17.1 °F 2.5 °F 9.0 °F 71% 30.20 in 10.0 mi WNW 15.0 mph - 0.00 in Rain Light Freezing Rain
12:52 PM 18.0 °F 3.1 °F 10.0 °F 71% 30.19 in 10.0 mi WNW 16.1 mph - 0.00 in Rain Light Freezing Rain
1:50 PM 19.4 °F 4.1 °F 10.4 °F 68% 30.16 in 10.0 mi WNW 18.4 mph - 0.00 in   Clear
1:52 PM 19.0 °F 3.2 °F 10.9 °F 71% 30.20 in 10.0 mi WNW 19.6 mph - 0.00 in   Clear
2:52 PM 19.0 °F 2.7 °F 10.9 °F 71% 30.22 in 10.0 mi WNW 20.7 mph - N/A   Clear
3:52 PM 18.0 °F 2.6 °F 10.9 °F 74% 30.23 in 10.0 mi WNW 17.3 mph - N/A   Clear
4:52 PM 18.0 °F 3.1 °F 10.0 °F 71% 30.25 in 10.0 mi WNW 16.1 mph - N/A   Clear
5:52 PM 17.1 °F 3.6 °F 9.0 °F 71% 30.27 in 10.0 mi NW 12.7 mph - N/A   Clear
6:52 PM 16.0 °F 4.4 °F 9.0 °F 74% 30.28 in 10.0 mi West 9.2 mph - N/A   Clear
7:52 PM 14.0 °F 2.0 °F 9.0 °F 80% 30.29 in 10.0 mi WNW 9.2 mph - N/A   Clear
8:52 PM 12.9 °F -0.2 °F 8.1 °F 81% 30.30 in 10.0 mi WNW 10.4 mph - N/A   Clear
9:52 PM 12.0 °F 1.5 °F 8.1 °F 84% 30.29 in 10.0 mi WNW 6.9 mph - N/A   Clear
10:52 PM 10.0 °F -1.9 °F 6.1 °F 84% 30.29 in 9.0 mi West 8.1 mph - N/A   Clear
11:52 PM 10.0 °F -1.9 °F 6.1 °F 84% 30.30 in 9.0 mi WNW 8.1 mph - N/A   Clear